Location: Ehingen
(48.2869°N, 9.7112°E)
Time: 03:43:35
(UTC+02:00)

ISS - Pass Details

Date: 09 January 2018
Orbit: 401 x 409 km, 51.6° (Epoch: 20 August)

Event Time Altitude Azimuth Distance (km) Brightness Sun altitude
Exits shadow 06:00:15 53° 26° (NNE) 523 -3.3 -20.8°
Drops below altitude 10° 06:03:26 10° 91° (E) 1,512 0.2 -20.3°
Enters shadow 06:57:06 -74° 293° (WNW) 12,653 3.7 -11.7°
Maximum altitude 07:36:48 48° 211° (SSW) 566 -3.1 -5.7°
